Cloud_Cover
0 0 5 5 5 5 5 30 29 56 16 88 94 57 100 78 42 100 30 2 5 5 5 47 7 14 22 70 94 67 5 5 4 0 0 0 5 6 76 16 2 5 12
0 0 0 4 1 5 5 5 5 14 34 6 10 11 5 51 7 2 0 1 5 33 32 68 29 69 100 94 81 5 5 0 5 2 3 5 73 6 2 1 5 45 6
0 0 0 0 0 0 4 6 26 6 5 4 2 5 5 5 0 0 5 5 5 43 50 38 7 60 44 80 5 4 2 13 21 5 5 5 5 5 95 100 99 13 44
0 0 0 0 0 0 0 0 0 0 0 0 0 3 0 0 0 5 5 5 7 57 99 100 29 36 100 28 4 33 43 31 86 70 89 84 5 29 50 66 17 16 10
0 0 0 0 0 0 0 0 0 0 0 0 0 0 5 5 33 38 11 5 12 99 100 100 29 99 37 5 70 27 87 98 27 100 100 100 100 17 2 16 0 4 5
5 4 1 0 0 0 0 0 0 0 0 0 0 0 2 3 1 5 5 5 6 96 100 45 73 9 1 79 8 59 100 100 100 100 100 100 100 100 86 5 0 2 5
5 5 5 5 0 0 0 0 0 0 0 0 0 0 0 0 1 5 5 5 29 49 4 4 5 0 34 5 9 100 100 100 100 100 100 100 100 100 100 100 62 5 0
5 5 7 5 5 2 0 0 0 0 0 0 0 0 1 0 0 0 0 3 0 3 5 2 0 4 5 5 74 70 94 100 100 100 100 100 100 100 100 100 100 100 95
5 5 8 4 5 5 4 0 0 0 0 0 0 0 0 0 0 0 0 0 4 5 5 5 2 2 5 40 77 56 100 100 80 100 100 100 100 100 100 100 100 100 100
6 5 81 44 4 5 5 5 0 0 0 0 0 0 0 0 0 0 0 0 5 5 5 5 5 5 25 99 23 32 92 72 99 100 100 100 100 100 100 100 100 100 100
4 4 9 100 47 5 5 5 5 5 0 0 0 0 0 0 0 0 0 0 1 3 0 0 5 5 5 97 66 5 11 100 100 100 100 100 100 100 100 100 100 100 100
0 5 5 14 100 74 5 5 5 5 5 0 0 0 0 0 0 0 0 0 0 0 2 4 4 5 58 73 58 77 74 97 100 100 100 100 100 100 100 100 100 100 100
0 3 5 5 56 100 18 5 6 5 5 3 0 0 0 0 0 0 0 3 5 2 0 1 5 6 8 31 72 90 75 100 100 100 100 100 100 100 100 100 100 100 100
4 0 5 7 14 55 100 12 5 44 7 1 5 0 0 0 0 0 0 0 0 2 4 5 5 20 23 100 53 5 21 83 100 100 100 100 100 100 100 100 100 100 100
42 4 10 57 14 14 83 100 11 5 41 3 0 5 4 1 0 0 0 0 0 0 4 5 5 5 5 38 100 100 88 100 100 100 100 100 11 99 100 83 99 100 100
41 81 100 48 21 6 71 43 90 24 17 16 4 0 5 5 5 5 0 0 0 0 0 0 5 5 4 5 79 23 5 100 79 93 5 49 5 4 56 9 5 100 30
98 55 100 98 100 100 100 99 84 84 24 6 8 14 2 5 5 5 5 1 0 0 0 0 0 4 6 58 2 5 4 3 8 5 5 5 4 4 4 21 52 94 100
8 100 96 98 96 75 100 100 100 30 96 7 5 5 8 5 5 5 8 5 5 0 0 0 0 0 5 5 0 0 0 4 5 13 5 5 5 5 17 14 92 100 100
14 5 92 100 100 59 100 100 100 100 58 73 24 5 6 4 17 3 65 68 6 29 11 0 0 0 0 0 0 0 0 1 90 93 19 5 6 4 13 74 53 40 100
40 5 19 100 72 90 100 100 100 100 100 88 23 6 5 4 3 8 5 60 97 70 7 28 12 1 0 0 0 0 0 0 5 5 13 5 20 5 9 5 67 99 90
47 5 19 100 100 9 96 100 92 100 100 95 84 66 5 3 1 5 5 5 4 13 90 22 7 25 0 0 0 0 0 0 0 0 1 9 0 4 39 8 5 27 13
51 15 46 86 92 70 98 92 100 100 100 100 92 91 100 46 15 1 5 5 5 5 47 7 90 5 5 5 0 0 0 0 0 0 0 0 0 0 0 5 44 69 40
23 56 5 87 82 38 22 100 100 54 96 99 100 87 100 64 6 4 6 26 54 7 33 19 5 47 4 2 2 0 1 0 0 0 0 0 0 0 1 5 5 5 5
99 99 60 100 100 63 35 81 99 43 80 98 94 100 100 97 84 12 5 4 5 4 4 5 5 8 5 5 3 7 13 0 0 0 0 3 0 0 0 5 1 0 65
96 72 85 99 100 99 89 84 23 55 64 53 94 100 100 92 100 100 34 27 2 0 0 0 0 5 52 12 39 1 0 2 0 0 2 29 0 0 0 0 0 0 0
84 99 100 95 93 69 99 100 99 59 81 44 73 99 100 100 100 100 100 100 100 80 99 61 47 28 47 14 100 17 0 5 1 1 0 11 3 2 0 0 0 0 0